Location: �perlecques
(50.8057°N, 2.1521°E)
Time: 20:40:39
(UTC+00:00)

Tiros 1 - Pass Details

Date: 11 August 2021
Orbit: 630 x 663 km, 48.4° (Epoch: 28 September)

Event Time Altitude Azimuth Distance (km) Brightness Sun altitude
Rises 13:51:42 0° 214° (SW) 2,984 11.3 47.4°
Reaches altitude 10° 13:54:22 10° 201° (SSW) 2,075 10.6 47.1°
Maximum altitude 13:58:15 25° 147° (SSE) 1,335 9.2 46.7°
Drops below altitude 10° 14:02:09 10° 93° (E) 2,079 9.6 46.3°
Sets 14:04:49 0° 80° (E) 2,990 10.2 46.0°
